カタログに戻る

COSMOS 2499 DEB

LostPO
NORAD 57759·DEBRIS·🇷🇺 Russia

打ち上げ May 23, 2014 から Plesetsk Cosmodrome

Loading…

次のパス (今後24時間)

TLE

古いSource: Space-Track

元期: Jun 15, 2026, 09:06 UTC

1 57759U 14028BR  26166.37953489  .00002364  00000-0  60786-2 0  9991
2 57759  82.3459 198.9977 0228137 229.7515 128.3454 13.08713187 69146

AllMySatでCOSMOS 2499 DEBをリアルタイム追跡

Download on the App Store